Time,TemperatureF,DewpointF,PressureIn,WindDirection,WindDirectionDegrees,WindSpeedMPH,WindSpeedGustMPH,Humidity,HourlyPrecipIn,Conditions,Clouds,dailyrainin,SoftwareType,DateUTC
2013-03-28 00:02:00,46.0,34.0,30.30,SE,139,2.0,5.0,63,0.00,,,0.00,,2013-03-28 05:02:00,
2013-03-28 00:12:00,46.0,34.0,30.30,SE,139,2.0,5.0,63,0.00,,,0.00,,2013-03-28 05:12:00,
2013-03-28 00:22:00,46.0,34.0,30.29,SSE,156,2.0,5.0,63,0.00,,,0.00,,2013-03-28 05:22:00,
2013-03-28 00:32:00,46.0,34.0,30.29,SE,129,2.0,7.0,63,0.00,,,0.00,,2013-03-28 05:32:00,
2013-03-28 00:42:00,46.0,34.0,30.29,SE,129,2.0,7.0,63,0.00,,,0.00,,2013-03-28 05:42:00,
2013-03-28 00:52:00,46.0,34.0,30.29,SE,135,3.0,7.0,62,0.00,,,0.00,,2013-03-28 05:52:00,
2013-03-28 01:02:00,46.0,34.0,30.28,ESE,120,1.0,7.0,63,0.00,,,0.00,,2013-03-28 06:02:00,
2013-03-28 01:12:00,46.0,34.0,30.28,ESE,120,1.0,7.0,63,0.00,,,0.00,,2013-03-28 06:12:00,
2013-03-28 01:22:00,46.0,34.0,30.28,SSE,153,3.0,6.0,63,0.00,,,0.00,,2013-03-28 06:22:00,
2013-03-28 01:32:00,46.0,34.0,30.28,SSE,153,3.0,6.0,63,0.00,,,0.00,,2013-03-28 06:32:00,
2013-03-28 01:42:00,46.0,34.0,30.28,SSE,153,3.0,6.0,63,0.00,,,0.00,,2013-03-28 06:42:00,
2013-03-28 01:52:00,46.0,35.0,30.28,SSE,158,1.0,4.0,65,0.00,,,0.00,,2013-03-28 06:52:00,
2013-03-28 02:02:00,46.0,35.0,30.27,SE,145,1.0,3.0,65,0.00,,,0.00,,2013-03-28 07:02:00,
2013-03-28 02:12:00,46.0,35.0,30.27,SE,145,1.0,3.0,65,0.00,,,0.00,,2013-03-28 07:12:00,
2013-03-28 02:22:00,46.0,35.0,30.27,ENE,66,1.0,3.0,65,0.00,,,0.00,,2013-03-28 07:22:00,
2013-03-28 02:32:00,46.0,35.0,30.27,SE,130,1.0,4.0,65,0.00,,,0.00,,2013-03-28 07:32:00,
2013-03-28 02:42:00,46.0,35.0,30.27,SE,130,1.0,4.0,65,0.00,,,0.00,,2013-03-28 07:42:00,
2013-03-28 02:52:00,46.0,35.0,30.27,SE,127,1.0,4.0,64,0.00,,,0.00,,2013-03-28 07:52:00,
2013-03-28 03:02:00,46.0,35.0,30.26,East,101,1.0,5.0,64,0.00,,,0.00,,2013-03-28 08:02:00,
2013-03-28 03:12:00,46.0,35.0,30.26,East,101,1.0,5.0,64,0.00,,,0.00,,2013-03-28 08:12:00,
2013-03-28 03:21:00,46.0,35.0,30.26,SE,133,0.0,3.0,64,0.00,,,0.00,,2013-03-28 08:21:00,
2013-03-28 03:42:00,45.0,34.0,30.26,ESE,115,0.0,4.0,64,0.00,,,0.00,,2013-03-28 08:42:00,
2013-03-28 03:52:00,45.0,34.0,30.26,ESE,115,1.0,3.0,64,0.00,,,0.00,,2013-03-28 08:52:00,
2013-03-28 04:02:00,45.0,34.0,30.25,ESE,108,1.0,3.0,64,0.00,,,0.00,,2013-03-28 09:02:00,
2013-03-28 04:12:00,45.0,34.0,30.25,ESE,108,1.0,3.0,64,0.00,,,0.00,,2013-03-28 09:12:00,
2013-03-28 04:22:00,45.0,34.0,30.25,SE,129,1.0,4.0,64,0.00,,,0.00,,2013-03-28 09:22:00,
2013-03-28 04:32:00,45.0,34.0,30.25,ESE,111,2.0,3.0,64,0.00,,,0.00,,2013-03-28 09:32:00,
2013-03-28 04:42:00,45.0,34.0,30.25,ESE,111,2.0,3.0,64,0.00,,,0.00,,2013-03-28 09:42:00,
2013-03-28 04:52:00,45.0,34.0,30.25,ESE,113,2.0,5.0,64,0.00,,,0.00,,2013-03-28 09:52:00,
2013-03-28 05:03:00,45.0,34.0,30.24,SE,135,3.0,6.0,64,0.00,,,0.00,,2013-03-28 10:03:00,
2013-03-28 05:12:00,45.0,34.0,30.24,SE,135,3.0,6.0,64,0.00,,,0.00,,2013-03-28 10:12:00,
2013-03-28 05:22:00,45.0,34.0,30.25,East,82,1.0,5.0,65,0.00,,,0.00,,2013-03-28 10:22:00,
2013-03-28 05:32:00,45.0,34.0,30.24,East,100,2.0,5.0,65,0.00,,,0.00,,2013-03-28 10:32:00,
2013-03-28 05:42:00,45.0,34.0,30.24,East,100,2.0,5.0,65,0.00,,,0.00,,2013-03-28 10:42:00,
2013-03-28 05:53:00,45.0,34.0,30.25,ESE,123,2.0,6.0,65,0.00,,,0.00,,2013-03-28 10:53:00,
2013-03-28 06:02:00,45.0,34.0,30.25,ESE,108,2.0,4.0,65,0.00,,,0.00,,2013-03-28 11:02:00,
2013-03-28 06:12:00,45.0,34.0,30.25,ESE,108,2.0,4.0,65,0.00,,,0.00,,2013-03-28 11:12:00,
2013-03-28 06:23:00,45.0,34.0,30.25,East,97,2.0,5.0,64,0.00,,,0.00,,2013-03-28 11:23:00,
2013-03-28 06:32:00,45.0,34.0,30.25,ESE,116,2.0,5.0,64,0.00,,,0.00,,2013-03-28 11:32:00,
2013-03-28 06:42:00,45.0,34.0,30.25,ESE,116,2.0,5.0,64,0.00,,,0.00,,2013-03-28 11:42:00,
2013-03-28 06:52:00,45.0,34.0,30.25,ESE,117,2.0,5.0,65,0.00,,,0.00,,2013-03-28 11:52:00,
2013-03-28 07:02:00,45.0,34.0,30.25,ESE,109,2.0,5.0,65,0.00,,,0.00,,2013-03-28 12:02:00,
2013-03-28 07:12:00,45.0,34.0,30.25,ESE,109,2.0,5.0,65,0.00,,,0.00,,2013-03-28 12:12:00,
2013-03-28 07:22:00,45.0,34.0,30.26,ESE,115,1.0,6.0,65,0.00,,,0.00,,2013-03-28 12:22:00,
2013-03-28 07:32:00,45.0,34.0,30.26,ESE,111,2.0,7.0,65,0.00,,,0.00,,2013-03-28 12:32:00,
2013-03-28 07:42:00,45.0,34.0,30.26,ESE,111,2.0,7.0,65,0.00,,,0.00,,2013-03-28 12:42:00,
2013-03-28 07:52:00,45.0,34.0,30.26,ESE,117,1.0,7.0,65,0.00,,,0.00,,2013-03-28 12:52:00,
2013-03-28 08:02:00,45.0,34.0,30.26,ESE,120,4.0,6.0,65,0.00,,,0.00,,2013-03-28 13:02:00,
2013-03-28 08:12:00,45.0,34.0,30.26,ESE,120,4.0,6.0,65,0.00,,,0.00,,2013-03-28 13:12:00,
2013-03-28 08:22:00,45.0,34.0,30.26,SSW,204,2.0,7.0,64,0.00,,,0.00,,2013-03-28 13:22:00,
2013-03-28 08:32:00,46.0,34.0,30.26,ESE,122,2.0,7.0,63,0.00,,,0.00,,2013-03-28 13:32:00,
2013-03-28 08:41:00,46.0,34.0,30.26,ESE,122,2.0,7.0,63,0.00,,,0.00,,2013-03-28 13:41:00,
2013-03-28 08:52:00,47.0,34.0,30.27,ESE,120,4.0,9.0,61,0.00,,,0.00,,2013-03-28 13:52:00,
2013-03-28 09:02:00,47.0,34.0,30.27,ESE,120,4.0,9.0,61,0.00,,,0.00,,2013-03-28 14:02:00,
2013-03-28 09:12:00,47.0,34.0,30.27,ESE,120,4.0,9.0,61,0.00,,,0.00,,2013-03-28 14:12:00,
2013-03-28 09:22:00,48.0,34.0,30.27,East,80,5.0,11.0,58,0.00,,,0.00,,2013-03-28 14:22:00,
2013-03-28 09:32:00,49.0,34.0,30.27,SE,128,6.0,10.0,57,0.00,,,0.00,,2013-03-28 14:32:00,
2013-03-28 09:42:00,49.0,34.0,30.27,SE,128,6.0,10.0,57,0.00,,,0.00,,2013-03-28 14:42:00,
2013-03-28 09:52:00,50.0,34.0,30.27,SSE,151,6.0,12.0,55,0.00,,,0.00,,2013-03-28 14:52:00,
2013-03-28 10:02:00,50.0,34.0,30.27,SSE,151,6.0,12.0,55,0.00,,,0.00,,2013-03-28 15:02:00,
2013-03-28 10:12:00,50.0,34.0,30.27,SSE,151,6.0,12.0,55,0.00,,,0.00,,2013-03-28 15:12:00,
2013-03-28 10:21:00,52.0,35.0,30.27,SE,134,6.0,11.0,52,0.00,,,0.00,,2013-03-28 15:21:00,
2013-03-28 10:33:00,52.0,34.0,30.27,SSE,168,6.0,13.0,51,0.00,,,0.00,,2013-03-28 15:33:00,
2013-03-28 10:43:00,52.0,34.0,30.27,SSE,168,6.0,13.0,51,0.00,,,0.00,,2013-03-28 15:43:00,
2013-03-28 10:53:00,53.0,34.0,30.27,ESE,121,7.0,11.0,49,0.00,,,0.00,,2013-03-28 15:53:00,
2013-03-28 11:02:00,54.0,36.0,30.26,East,90,4.0,11.0,50,0.00,,,0.00,,2013-03-28 16:02:00,
2013-03-28 11:12:00,54.0,36.0,30.26,East,90,4.0,11.0,50,0.00,,,0.00,,2013-03-28 16:12:00,
2013-03-28 11:23:00,55.0,36.0,30.27,SSE,148,5.0,11.0,49,0.00,,,0.00,,2013-03-28 16:23:00,
2013-03-28 11:32:00,57.0,38.0,30.26,ESE,109,4.0,9.0,48,0.00,,,0.00,,2013-03-28 16:32:00,
2013-03-28 11:42:00,57.0,38.0,30.26,ESE,109,4.0,9.0,48,0.00,,,0.00,,2013-03-28 16:42:00,
2013-03-28 11:52:00,57.0,36.0,30.26,ESE,121,4.0,11.0,46,0.00,,,0.00,,2013-03-28 16:52:00,
2013-03-28 12:02:00,58.0,37.0,30.25,WSW,246,4.0,9.0,46,0.00,,,0.00,,2013-03-28 17:02:00,
2013-03-28 12:12:00,58.0,37.0,30.25,WSW,246,4.0,9.0,46,0.00,,,0.00,,2013-03-28 17:12:00,
2013-03-28 12:22:00,59.0,37.0,30.25,SSE,155,5.0,10.0,44,0.00,,,0.00,,2013-03-28 17:22:00,
2013-03-28 12:32:00,60.0,38.0,30.24,SSE,160,2.0,9.0,44,0.00,,,0.00,,2013-03-28 17:32:00,
2013-03-28 12:42:00,60.0,38.0,30.24,SSE,160,2.0,9.0,44,0.00,,,0.00,,2013-03-28 17:42:00,
2013-03-28 12:52:00,61.0,38.0,30.23,ESE,117,3.0,10.0,43,0.00,,,0.00,,2013-03-28 17:52:00,
2013-03-28 13:02:00,62.0,39.0,30.23,SE,140,4.0,10.0,42,0.00,,,0.00,,2013-03-28 18:02:00,
2013-03-28 13:12:00,62.0,39.0,30.23,SE,140,4.0,10.0,42,0.00,,,0.00,,2013-03-28 18:12:00,
2013-03-28 13:22:00,63.0,39.0,30.22,South,169,4.0,10.0,41,0.00,,,0.00,,2013-03-28 18:22:00,
2013-03-28 13:32:00,64.0,39.0,30.21,ENE,57,3.0,10.0,40,0.00,,,0.00,,2013-03-28 18:32:00,
2013-03-28 13:42:00,64.0,39.0,30.21,ENE,57,3.0,10.0,40,0.00,,,0.00,,2013-03-28 18:42:00,
2013-03-28 13:52:00,64.0,39.0,30.21,ENE,57,3.0,10.0,40,0.00,,,0.00,,2013-03-28 18:52:00,
2013-03-28 14:02:00,65.0,39.0,30.20,East,96,3.0,10.0,39,0.00,,,0.00,,2013-03-28 19:02:00,
2013-03-28 14:12:00,65.0,39.0,30.20,East,96,3.0,10.0,39,0.00,,,0.00,,2013-03-28 19:12:00,
2013-03-28 14:22:00,66.0,40.0,30.19,SE,141,3.0,12.0,39,0.00,,,0.00,,2013-03-28 19:22:00,
2013-03-28 14:33:00,66.0,40.0,30.19,East,98,5.0,12.0,38,0.00,,,0.00,,2013-03-28 19:33:00,
2013-03-28 14:42:00,66.0,40.0,30.19,East,98,5.0,12.0,38,0.00,,,0.00,,2013-03-28 19:42:00,
2013-03-28 14:52:00,67.0,41.0,30.18,SSW,196,1.0,7.0,38,0.00,,,0.00,,2013-03-28 19:52:00,
2013-03-28 15:03:00,67.0,41.0,30.17,ESE,110,4.0,9.0,38,0.00,,,0.00,,2013-03-28 20:03:00,
2013-03-28 15:12:00,67.0,41.0,30.17,ESE,110,4.0,9.0,38,0.00,,,0.00,,2013-03-28 20:12:00,
2013-03-28 15:22:00,67.0,41.0,30.16,East,101,6.0,11.0,38,0.00,,,0.00,,2013-03-28 20:22:00,
2013-03-28 15:32:00,67.0,41.0,30.15,East,96,2.0,11.0,39,0.00,,,0.00,,2013-03-28 20:32:00,
2013-03-28 15:42:00,67.0,41.0,30.15,East,96,2.0,11.0,39,0.00,,,0.00,,2013-03-28 20:42:00,
2013-03-28 15:52:00,69.0,43.0,30.14,ENE,59,3.0,10.0,39,0.00,,,0.00,,2013-03-28 20:52:00,
2013-03-28 16:02:00,69.0,42.0,30.14,SSE,148,6.0,11.0,38,0.00,,,0.00,,2013-03-28 21:02:00,
2013-03-28 16:12:00,69.0,42.0,30.14,SSE,148,6.0,11.0,38,0.00,,,0.00,,2013-03-28 21:12:00,
2013-03-28 16:22:00,69.0,42.0,30.14,SE,139,5.0,9.0,38,0.00,,,0.00,,2013-03-28 21:22:00,
2013-03-28 16:32:00,69.0,42.0,30.13,ESE,118,0.0,5.0,38,0.00,,,0.00,,2013-03-28 21:32:00,
2013-03-28 16:43:00,69.0,42.0,30.13,ESE,118,0.0,5.0,38,0.00,,,0.00,,2013-03-28 21:43:00,
2013-03-28 16:53:00,68.0,42.0,30.13,SSE,159,0.0,7.0,39,0.00,,,0.00,,2013-03-28 21:53:00,
2013-03-28 17:02:00,68.0,43.0,30.12,SSE,158,2.0,8.0,41,0.00,,,0.00,,2013-03-28 22:02:00,
2013-03-28 17:12:00,68.0,43.0,30.12,SSE,158,2.0,8.0,41,0.00,,,0.00,,2013-03-28 22:12:00,
2013-03-28 17:22:00,68.0,43.0,30.12,SE,141,4.0,9.0,41,0.00,,,0.00,,2013-03-28 22:22:00,
2013-03-28 17:32:00,68.0,44.0,30.12,SSE,148,3.0,7.0,42,0.00,,,0.00,,2013-03-28 22:32:00,
2013-03-28 17:42:00,68.0,44.0,30.12,SSE,148,3.0,7.0,42,0.00,,,0.00,,2013-03-28 22:42:00,
2013-03-28 17:52:00,67.0,44.0,30.12,SE,129,1.0,5.0,43,0.00,,,0.00,,2013-03-28 22:52:00,
2013-03-28 18:03:00,67.0,44.0,30.12,ESE,108,2.0,6.0,44,0.00,,,0.00,,2013-03-28 23:03:00,
2013-03-28 18:12:00,67.0,44.0,30.12,ESE,108,2.0,6.0,44,0.00,,,0.00,,2013-03-28 23:12:00,
2013-03-28 18:22:00,67.0,44.0,30.12,East,79,1.0,5.0,44,0.00,,,0.00,,2013-03-28 23:22:00,
2013-03-28 18:32:00,66.0,45.0,30.12,ENE,78,2.0,5.0,46,0.00,,,0.00,,2013-03-28 23:32:00,
2013-03-28 18:42:00,66.0,45.0,30.12,ENE,78,2.0,5.0,46,0.00,,,0.00,,2013-03-28 23:42:00,
2013-03-28 18:52:00,65.0,44.0,30.12,SE,125,1.0,4.0,47,0.00,,,0.00,,2013-03-28 23:52:00,
2013-03-28 19:02:00,65.0,44.0,30.12,East,89,2.0,6.0,47,0.00,,,0.00,,2013-03-29 00:02:00,
2013-03-28 19:12:00,65.0,44.0,30.12,East,89,2.0,6.0,47,0.00,,,0.00,,2013-03-29 00:12:00,
2013-03-28 19:22:00,65.0,45.0,30.12,ESE,107,2.0,4.0,48,0.00,,,0.00,,2013-03-29 00:22:00,
2013-03-28 19:32:00,65.0,45.0,30.12,ESE,107,2.0,4.0,48,0.00,,,0.00,,2013-03-29 00:32:00,
2013-03-28 19:42:00,65.0,45.0,30.12,ESE,107,2.0,4.0,48,0.00,,,0.00,,2013-03-29 00:42:00,
2013-03-28 19:52:00,64.0,45.0,30.13,East,100,1.0,4.0,50,0.00,,,0.00,,2013-03-29 00:52:00,
2013-03-28 20:02:00,63.0,45.0,30.13,SE,125,0.0,1.0,51,0.00,,,0.00,,2013-03-29 01:02:00,
2013-03-28 20:12:00,63.0,45.0,30.13,SE,125,0.0,1.0,51,0.00,,,0.00,,2013-03-29 01:12:00,
2013-03-28 20:22:00,63.0,45.0,30.14,East,79,0.0,2.0,52,0.00,,,0.00,,2013-03-29 01:22:00,
2013-03-28 20:32:00,62.0,45.0,30.14,ESE,120,0.0,0.0,54,0.00,,,0.00,,2013-03-29 01:32:00,
2013-03-28 20:42:00,62.0,45.0,30.14,ESE,120,0.0,0.0,54,0.00,,,0.00,,2013-03-29 01:42:00,
2013-03-28 20:52:00,62.0,45.0,30.14,SE,141,0.0,1.0,54,0.00,,,0.00,,2013-03-29 01:52:00,
2013-03-28 21:02:00,62.0,45.0,30.14,SE,141,0.0,1.0,54,0.00,,,0.00,,2013-03-29 02:02:00,
2013-03-28 21:12:00,62.0,45.0,30.14,SE,141,0.0,1.0,54,0.00,,,0.00,,2013-03-29 02:12:00,
2013-03-28 21:22:00,60.0,45.0,30.15,SE,126,0.0,0.0,57,0.00,,,0.00,,2013-03-29 02:22:00,
2013-03-28 21:32:00,60.0,45.0,30.15,SE,125,0.0,0.0,58,0.00,,,0.00,,2013-03-29 02:32:00,
2013-03-28 21:42:00,60.0,45.0,30.15,SE,125,0.0,0.0,58,0.00,,,0.00,,2013-03-29 02:42:00,
2013-03-28 21:52:00,60.0,46.0,30.15,ESE,104,1.0,2.0,59,0.00,,,0.00,,2013-03-29 02:52:00,
2013-03-28 22:02:00,61.0,46.0,30.16,ESE,116,0.0,3.0,58,0.00,,,0.00,,2013-03-29 03:02:00,
2013-03-28 22:12:00,61.0,46.0,30.16,ESE,116,0.0,3.0,58,0.00,,,0.00,,2013-03-29 03:12:00,
2013-03-28 22:22:00,61.0,47.0,30.17,SE,141,2.0,4.0,59,0.00,,,0.00,,2013-03-29 03:22:00,
2013-03-28 22:32:00,61.0,47.0,30.17,SSE,150,2.0,5.0,59,0.00,,,0.00,,2013-03-29 03:32:00,
2013-03-28 22:42:00,61.0,47.0,30.17,SSE,150,2.0,5.0,59,0.00,,,0.00,,2013-03-29 03:42:00,
2013-03-28 22:53:00,61.0,47.0,30.17,SSE,153,2.0,5.0,61,0.00,,,0.00,,2013-03-29 03:53:00,
2013-03-28 23:03:00,60.0,47.0,30.18,ESE,103,1.0,4.0,63,0.00,,,0.00,,2013-03-29 04:03:00,
2013-03-28 23:12:00,60.0,47.0,30.18,ESE,103,1.0,4.0,63,0.00,,,0.00,,2013-03-29 04:12:00,
2013-03-28 23:22:00,59.0,47.0,30.17,SSE,153,2.0,5.0,65,0.00,,,0.00,,2013-03-29 04:22:00,
2013-03-28 23:33:00,59.0,48.0,30.17,SSE,148,2.0,5.0,66,0.00,,,0.00,,2013-03-29 04:33:00,
2013-03-28 23:43:00,59.0,48.0,30.17,SSE,148,2.0,5.0,66,0.00,,,0.00,,2013-03-29 04:43:00,
2013-03-28 23:52:00,58.0,47.0,30.17,SSE,163,1.0,4.0,66,0.00,,,0.00,,2013-03-29 04:52:00,